Atlantic City, NJ

8:42 PM EDT on September 21, 2019 (GMT -0400)
Atlantic City International

Weather History for KACY - August, 2019

Change the Weather History Date:

Saturday, August 24, 2019

  Actual Average Record
Temperature  
Mean Temperature 70 °F 74 °F  
Max Temperature 80 °F 83 °F 93 °F (1998)
Min Temperature 59 °F 64 °F 46 °F (1971)
Degree Days  
Heating Degree Days 0 0  
Month to date heating degree days 0 0  
Since 1 June heating degree days 5 27  
Since 1 July heating degree days 0 0  
Cooling Degree Days 4 9  
Month to date cooling degree days 312 241  
Year to date cooling degree days 1133 855  
Since 1 June cooling degree days 1033 791  
Growing Degree Days 20 (Base 50)    
Moisture  
Dew Point 55 °F    
Average Humidity 66    
Maximum Humidity 90    
Minimum Humidity 37    
Precipitation  
Precipitation 0.00 in 0.13 in 2.18 in (1958)
Month to date precipitation 1.93 3.33  
Year to date precipitation 30.05 27.44  
Snow  
Snow 0.00 in 0.00 in 0.00 in ()
Month to date snowfall 0.0 0.0  
Since 1 June snowfall 0.0 0.0  
Since 1 July snowfall 0.0 0.0  
Snow Depth 0.00 in    
Sea Level Pressure  
Sea Level Pressure 30.14 in    
Wind  
Wind Speed 7 mph ()    
Max Wind Speed 17 mph    
Max Gust Speed 26 mph    
Visibility 10.0 miles    
Events      
T = Trace of Precipitation, MM = Missing Value Source: Averaged Metar Reports

Daily Weather History Graph

Daily Weather History Graph

Search for Another Location

Airport or City:

Astronomy

Aug. 24, 2019 Rise Set
Actual Time 6:19 AM EDT 7:41 PM EDT
Civil Twilight 5:50 AM EDT 8:09 PM EDT
Nautical Twilight 5:17 AM EDT 8:43 PM EDT
Astronomical Twilight 4:41 AM EDT 9:18 PM EDT
Moon 12:11 AM EDT (8/24) 2:53 PM EDT (8/24)
Length of Visible Light 14h 18m
Length of Day
13h 22m
Last Quarter, 39% of the Moon is Illuminated
Aug 24
Last Quarter
Aug 30
New
Sep 5
First Quarter
Sep 14
Full
Sep 21
Last Quarter

Hourly Weather History & Observations

Time (EDT) Temp. Dew Point Humidity Pressure Visibility Wind Dir Wind Speed Gust Speed Precip Events Conditions
12:54 AM 64.9 °F 61.0 °F 87% 30.05 in 10.0 mi NNW 6.9 mph - N/A   Clear
1:54 AM 63.0 °F 59.0 °F 87% 30.05 in 10.0 mi North 5.8 mph - N/A   Clear
2:54 AM 62.1 °F 57.9 °F 86% 30.06 in 10.0 mi NNW 3.5 mph - N/A   Clear
3:54 AM 61.0 °F 57.0 °F 87% 30.07 in 10.0 mi NNW 4.6 mph - N/A   Clear
4:54 AM 60.1 °F 55.9 °F 86% 30.08 in 10.0 mi North 5.8 mph - N/A   Clear
5:54 AM 60.1 °F 55.0 °F 83% 30.09 in 10.0 mi North 8.1 mph - N/A   Clear
7:54 AM 64.9 °F 57.9 °F 78% 30.14 in 10.0 mi North 9.2 mph - N/A   Mostly Cloudy
8:54 AM 69.1 °F 60.1 °F 73% 30.15 in 10.0 mi NNE 9.2 mph - N/A   Scattered Clouds
9:54 AM 73.0 °F 61.0 °F 66% 30.15 in 10.0 mi NE 11.5 mph 19.6 mph N/A   Partly Cloudy
10:54 AM 75.0 °F 55.9 °F 51% 30.16 in 10.0 mi NE 12.7 mph 25.3 mph N/A   Clear
11:54 AM 77.0 °F 52.0 °F 42% 30.16 in 10.0 mi NNE 15.0 mph - N/A   Clear
12:54 PM 77.0 °F 51.1 °F 40% 30.16 in 10.0 mi East 11.5 mph 19.6 mph N/A   Mostly Cloudy
1:54 PM 78.1 °F 50.0 °F 37% 30.16 in 10.0 mi ENE 11.5 mph 20.7 mph N/A   Clear
2:54 PM 78.1 °F 51.1 °F 39% 30.15 in 10.0 mi East 9.2 mph - N/A   Scattered Clouds
3:54 PM 77.0 °F 53.1 °F 43% 30.14 in 10.0 mi ENE 10.4 mph - N/A   Mostly Cloudy
4:54 PM 75.9 °F 54.0 °F 46% 30.16 in 10.0 mi ESE 9.2 mph - N/A   Mostly Cloudy
5:54 PM 73.9 °F 54.0 °F 50% 30.16 in 10.0 mi East 10.4 mph - N/A   Clear
6:54 PM 72.0 °F 54.0 °F 53% 30.17 in 10.0 mi East 6.9 mph - N/A   Partly Cloudy
7:54 PM 66.9 °F 55.0 °F 66% 30.18 in 10.0 mi East 4.6 mph - N/A   Clear
8:54 PM 64.0 °F 55.0 °F 73% 30.20 in 10.0 mi ENE 4.6 mph - N/A   Clear
9:54 PM 63.0 °F 55.0 °F 75% 30.21 in 10.0 mi ENE 3.5 mph - N/A   Clear
10:54 PM 62.1 °F 55.0 °F 78% 30.21 in 10.0 mi Calm Calm - N/A   Clear
11:54 PM 61.0 °F 55.0 °F 81% 30.22 in 10.0 mi Calm Calm - N/A   Clear